Prescott, AZ

10:14 AM MST on February 26, 2017 (GMT -0700)
Love

Weather History for KPRC - September, 2013

Change the Weather History Date:

Monday, September 23, 2013

  Actual Average Record
Temperature  
Mean Temperature 61 °F 65 °F  
Max Temperature 79 °F 80 °F 90 °F (2001)
Min Temperature 43 °F 51 °F 38 °F (2006)
Degree Days  
Heating Degree Days 4    
Month to date heating degree days 17  
Since 1 July heating degree days 17  
Cooling Degree Days 0    
Month to date cooling degree days 106  
Year to date cooling degree days 1127  
Growing Degree Days 10 (Base 50)    
Moisture  
Dew Point 31 °F    
Average Humidity 38    
Maximum Humidity 70    
Minimum Humidity 13    
Precipitation  
Precipitation 0.00 in 0.05 in 5.39 in (1983)
Month to date precipitation 2.48 1.22  
Year to date precipitation 10.70 10.88  
Sea Level Pressure  
Sea Level Pressure 29.90 in    
Wind  
Wind Speed 4 mph (SW)    
Max Wind Speed 9 mph    
Max Gust Speed 13 mph    
Visibility 10 miles    
Events      
T = Trace of Precipitation, MM = Missing Value Source: NWS Daily Summary

Daily Weather History Graph

Daily Weather History Graph

Search for Another Location

Airport or City:

Trip Planner

Search our weather history database for the weather conditions in past years. The results will help you decide how hot, cold, wet, or windy it might be!

Date:

Astronomy

Sep. 23, 2013 Rise Set
Actual Time 6:18 AM MST 6:24 PM MST
Civil Twilight 5:53 AM MST 6:49 PM MST
Nautical Twilight 5:24 AM MST 7:18 PM MST
Astronomical Twilight 4:54 AM MST 7:48 PM MST
Moon 9:11 PM MST (9/23) 10:30 AM MST (9/23)
Length of Visible Light 12h 56m
Length of Day
12h 05m
Waning Gibbous, 80% of the Moon is Illuminated
Sep 23
Waning Gibbous
Sep 26
Last Quarter
Oct 4
New
Oct 11
First Quarter
Oct 18
Full

Hourly Weather History & Observations

Time (MST) Temp. Windchill Dew Point Humidity Pressure Visibility Wind Dir Wind Speed Gust Speed Precip Events Conditions
12:53 AM 50.0 °F - 30.9 °F 48% 29.82 in 10.0 mi WNW 3.5 mph - N/A   Clear
1:53 AM 46.9 °F - 32.0 °F 56% 29.83 in 10.0 mi SSW 3.5 mph - N/A   Clear
2:53 AM 45.0 °F 43.5 °F 33.1 °F 63% 29.84 in 10.0 mi South 3.5 mph - N/A   Clear
3:53 AM 43.0 °F 39.5 °F 33.1 °F 68% 29.86 in 10.0 mi South 5.8 mph - N/A   Clear
4:53 AM 43.0 °F 39.5 °F 33.1 °F 68% 29.86 in 10.0 mi SSW 5.8 mph - N/A   Clear
5:53 AM 45.0 °F 40.1 °F 32.0 °F 60% 29.88 in 10.0 mi South 9.2 mph - N/A   Clear
6:53 AM 46.0 °F 44.8 °F 32.0 °F 58% 29.92 in 10.0 mi SSW 3.5 mph - N/A   Clear
7:53 AM 55.0 °F - 33.1 °F 43% 29.94 in 10.0 mi NNW 3.5 mph - N/A   Clear
8:53 AM 60.1 °F - 33.1 °F 36% 29.93 in 10.0 mi WNW 3.5 mph - N/A   Clear
9:53 AM 64.9 °F - 33.1 °F 31% 29.93 in 10.0 mi Calm Calm - N/A   Clear
10:53 AM 70.0 °F - 33.1 °F 26% 29.92 in 10.0 mi Variable 3.5 mph - N/A   Clear
11:53 AM 72.0 °F - 30.0 °F 21% 29.92 in 10.0 mi WNW 4.6 mph - N/A   Clear
12:53 PM 73.0 °F - 26.1 °F 17% 29.90 in 10.0 mi Variable 3.5 mph - N/A   Clear
1:53 PM 75.0 °F - 24.1 °F 15% 29.89 in 10.0 mi Calm Calm - N/A   Clear
2:53 PM 78.1 °F - 25.0 °F 14% 29.89 in 10.0 mi NE 4.6 mph - N/A   Clear
3:53 PM 78.1 °F - 27.0 °F 15% 29.89 in 10.0 mi WNW 5.8 mph - N/A   Clear
4:53 PM 77.0 °F - 27.0 °F 16% 29.89 in 10.0 mi ESE 3.5 mph - N/A   Clear
5:53 PM 75.9 °F - 25.0 °F 15% 29.89 in 10.0 mi Calm Calm - N/A   Clear
6:53 PM 66.9 °F - 33.1 °F 28% 29.93 in 10.0 mi Calm Calm - N/A   Clear
7:53 PM 61.0 °F - 34.0 °F 36% 29.95 in 10.0 mi South 6.9 mph - N/A   Clear
8:53 PM 59.0 °F - 35.1 °F 41% 29.95 in 10.0 mi SSW 8.1 mph - N/A   Clear
9:53 PM 57.0 °F - 35.1 °F 44% 29.96 in 10.0 mi SSW 3.5 mph - N/A   Clear
10:53 PM 55.0 °F - 34.0 °F 45% 29.95 in 10.0 mi SW 5.8 mph - N/A   Clear
11:53 PM 52.0 °F - 35.1 °F 53% 29.95 in 10.0 mi SSW 3.5 mph - N/A   Clear